PBO Station Position Time Series. Reference Frame : NAM14
Format Version,1.1.0
4-character ID,VMAG
Station name,Magangue
Begin Date, 2012-05-01
End Date, 2021-08-23
Release Date, 2022-02-24
Reference position, 9.2867416223 North Latitude, -74.8473192509 East Longitude, 61.08890 meters elevation,
Date, North (mm), East (mm), Vertical (mm), North Std. Deviation (mm), East Std. Deviation (mm),              Vertical Std. Deviation (mm), Quality,
2012-05-01,0.00, 0.00, 0.00, 2.12, 2.85, 9.76, repro,
2012-05-02,-0.37, -3.69, -8.72, 2.09, 2.86, 9.63, repro,
2012-05-03,1.18, 1.88, -7.26, 2.00, 2.83, 9.41, repro,
2012-05-04,0.65, 2.55, -7.95, 2.12, 2.96, 9.88, repro,
2012-05-05,-0.95, 0.11, -10.45, 2.21, 3.32, 10.71, repro,
2012-05-06,-1.04, 0.62, -11.60, 2.11, 2.97, 9.74, repro,
2012-05-07,1.95, 0.69, -7.92, 2.09, 2.83, 9.71, repro,
2012-05-08,-0.78, -0.67, -5.41, 2.01, 2.84, 9.47, repro,
2012-05-09,-0.32, -1.07, -19.50, 2.00, 2.80, 9.35, repro,
2012-05-10,-0.52, -0.07, -24.07, 1.99, 2.77, 9.28, repro,
2012-05-11,-1.38, 0.22, -12.60, 2.17, 3.10, 10.07, repro,
2012-05-12,-1.95, 0.15, -8.57, 1.95, 2.82, 9.16, repro,
2012-05-13,-1.06, -0.33, -17.28, 2.08, 2.97, 9.95, repro,
2012-05-14,-0.51, 0.77, -22.83, 2.08, 2.98, 9.84, repro,
2012-05-15,1.24, -1.31, -9.05, 2.00, 2.81, 9.33, repro,
2012-05-16,0.94, 0.11, -2.59, 1.98, 2.77, 9.23, repro,
2012-05-17,2.63, -0.99, -12.00, 2.07, 2.83, 9.58, repro,
2012-05-18,-0.06, 3.74, 4.38, 2.12, 2.95, 9.99, repro,
2012-05-19,0.19, 0.53, -19.66, 2.30, 3.06, 10.40, repro,
2012-05-20,1.62, 0.03, -6.15, 2.17, 2.90, 9.90, repro,
2012-05-21,-0.91, 1.87, -14.66, 2.06, 2.84, 9.36, repro,
2012-05-22,4.67, 0.90, -4.23, 2.05, 2.84, 9.41, repro,
2012-05-23,0.45, 0.10, -15.67, 2.06, 2.90, 9.47, repro,
2012-05-24,-0.49, -0.27, -5.35, 2.13, 2.89, 9.64, repro,
2012-05-25,0.94, 0.25, 4.39, 2.32, 3.26, 10.75, repro,
2012-05-26,1.01, 0.17, -2.00, 1.97, 2.84, 9.15, repro,
2012-05-27,-0.06, 1.78, -12.02, 1.93, 2.77, 8.93, repro,
2012-05-28,1.52, 0.03, 6.77, 2.00, 2.94, 9.49, repro,
2012-05-29,2.12, 0.88, -2.14, 1.94, 2.81, 9.08, repro,
2012-05-30,-0.20, 0.44, 8.36, 1.95, 2.83, 9.13, repro,
2012-05-31,0.88, 0.60, -6.53, 1.96, 2.83, 9.11, repro,
2012-06-01,-0.76, 0.22, -7.74, 2.00, 2.84, 9.18, repro,
2012-06-02,-0.34, 0.32, -0.30, 1.98, 2.87, 9.20, repro,
2012-06-03,0.93, -0.73, -1.36, 1.97, 2.83, 9.16, repro,
2012-06-04,-0.20, -0.72, 2.66, 1.97, 2.86, 9.25, repro,
2012-06-05,0.17, -1.66, -1.95, 1.97, 2.85, 9.15, repro,
2012-06-06,-0.55, 0.51, -11.18, 1.97, 2.83, 9.09, repro,
2012-06-07,-0.04, -0.12, -3.65, 1.96, 2.81, 9.07, repro,
2012-06-08,-0.60, 0.54, -3.91, 1.96, 2.82, 9.14, repro,
2012-06-09,-1.93, -1.27, -9.91, 2.08, 3.04, 9.85, repro,
2012-06-10,-0.54, -1.61, -16.20, 1.98, 2.82, 9.17, repro,
2012-06-11,0.28, -0.18, -5.66, 2.01, 2.86, 9.28, repro,
2012-06-12,0.89, -3.62, -6.35, 2.00, 2.77, 9.10, repro,
2012-06-13,-1.10, -0.76, -0.78, 2.09, 3.11, 9.74, repro,
2012-06-14,2.94, -0.51, -8.23, 1.99, 2.83, 9.23, repro,
2012-06-15,2.80, -1.73, -1.50, 1.98, 2.82, 9.20, repro,
2012-06-16,0.35, 0.74, -15.18, 2.06, 2.84, 9.49, repro,
2012-06-17,-0.10, -1.75, -12.18, 1.98, 2.79, 9.12, repro,
2012-06-18,2.68, -10.00, -36.13, 2.20, 3.34, 10.02, repro,
2012-06-19,0.74, -0.95, -10.44, 1.99, 2.81, 9.12, repro,
2012-06-20,3.20, -1.33, -5.33, 1.98, 2.80, 9.17, repro,
2012-06-21,3.09, 2.34, -4.94, 2.22, 3.32, 10.17, repro,
2012-06-22,0.37, -0.30, -1.97, 1.96, 2.77, 9.05, repro,
2012-06-23,4.29, 3.83, -10.08, 2.09, 2.83, 9.61, repro,
2012-06-24,1.95, 4.69, 2.82, 2.42, 3.57, 11.25, repro,
2012-06-25,-0.37, 0.19, -17.33, 1.95, 2.80, 9.13, repro,
2012-06-26,-2.41, -2.53, -3.72, 2.34, 3.60, 11.16, repro,
2012-06-27,1.22, -0.92, -18.01, 2.06, 2.84, 9.43, repro,
2012-06-28,3.93, -1.44, -17.34, 1.97, 2.81, 9.21, repro,
2012-06-29,-0.50, -0.42, -10.54, 1.98, 2.81, 9.22, repro,
2012-06-30,0.87, -1.12, -24.01, 2.13, 3.09, 9.85, repro,
2012-07-01,2.79, -0.70, -12.46, 1.95, 2.84, 9.20, repro,
2012-07-02,-1.45, 1.22, -10.21, 2.16, 3.06, 10.22, repro,
2012-07-03,0.41, -0.37, -4.71, 2.08, 2.98, 9.69, repro,
2012-07-04,1.09, -1.46, -18.09, 2.06, 2.86, 9.54, repro,
2012-07-05,-0.04, 0.08, 2.65, 2.06, 2.85, 9.53, repro,
2012-07-06,-0.81, -0.14, -7.58, 2.16, 3.32, 10.27, repro,
2012-07-07,1.89, 0.21, -1.57, 1.95, 2.85, 9.24, repro,
2012-07-08,1.22, -1.67, -5.99, 2.05, 2.89, 9.56, repro,
2012-07-09,1.53, -1.99, -13.66, 2.00, 2.83, 9.36, repro,
2012-07-10,0.98, -0.39, -3.46, 1.96, 2.83, 9.18, repro,
2012-07-11,-0.75, -3.04, -14.36, 1.98, 2.87, 9.36, repro,
2012-07-12,-0.13, 1.03, -12.48, 1.99, 2.97, 9.43, repro,
2012-07-13,3.15, -5.25, -8.65, 1.99, 2.94, 9.44, repro,
2012-07-14,1.41, 0.50, -7.30, 2.10, 3.01, 9.85, repro,
2012-07-15,-0.76, -3.65, -5.72, 2.15, 2.98, 9.71, repro,
2012-07-16,2.10, 1.66, -12.51, 2.06, 2.91, 9.55, repro,
2012-07-17,1.18, -0.02, 3.67, 2.09, 2.99, 9.75, repro,
2012-07-18,2.45, -2.30, -3.72, 2.06, 2.89, 9.55, repro,
2012-07-19,1.63, 1.33, -0.31, 1.97, 2.82, 9.26, repro,
2012-07-20,1.97, -2.13, 0.52, 1.98, 2.85, 9.28, repro,
2012-07-21,0.77, -0.93, -6.86, 2.19, 3.20, 10.06, repro,
2012-07-22,0.24, 4.17, -18.94, 1.95, 2.82, 9.04, repro,
2012-07-23,-1.49, 0.99, -3.03, 1.97, 2.82, 9.17, repro,
2012-07-24,2.51, -1.21, 2.31, 1.95, 2.85, 9.18, repro,
2012-07-25,2.08, -1.10, -7.58, 2.18, 3.11, 9.97, repro,
2012-07-26,2.45, 0.62, -5.57, 1.95, 2.78, 9.03, repro,
2012-07-27,3.17, 0.80, -5.53, 2.08, 3.06, 9.77, repro,
2012-07-28,1.37, 1.64, 1.68, 1.94, 2.76, 8.92, repro,
2012-07-29,0.90, 1.25, -0.94, 2.08, 2.97, 9.65, repro,
2012-07-30,3.50, -3.73, -3.71, 1.99, 2.87, 9.40, repro,
2012-07-31,0.20, 1.75, -10.94, 2.15, 3.17, 10.14, repro,
2012-08-01,-1.20, 1.47, -9.73, 1.95, 2.80, 9.01, repro,
2012-08-02,1.43, -0.02, -1.92, 2.14, 3.05, 9.71, repro,
2012-08-03,4.68, 0.85, 2.89, 2.01, 3.01, 9.46, repro,
2012-08-04,1.76, -4.16, 3.57, 1.96, 2.84, 9.16, repro,
2012-08-05,-0.00, 2.28, -10.54, 2.04, 3.02, 9.78, repro,
2012-08-06,1.89, 0.68, -2.15, 1.94, 2.81, 9.04, repro,
2012-08-07,0.52, 1.15, -4.47, 1.95, 2.81, 9.05, repro,
2012-08-08,3.14, 0.97, -8.79, 2.06, 3.09, 9.83, repro,
2012-08-09,2.01, -0.62, 1.47, 1.94, 2.81, 9.12, repro,
2012-08-10,-0.09, -0.81, -12.32, 1.98, 2.91, 9.25, repro,
2012-08-11,3.16, -2.87, -0.14, 2.11, 3.19, 9.86, repro,
2012-08-12,1.53, 1.58, -5.55, 1.98, 2.90, 9.24, repro,
2012-08-13,2.91, 0.13, -7.63, 2.26, 3.53, 10.74, repro,
2012-08-14,1.31, 1.71, -0.03, 2.14, 3.06, 9.78, repro,
2012-08-15,4.97, -0.91, -1.26, 1.97, 2.87, 9.28, repro,
2012-08-16,2.08, 0.70, -13.34, 1.96, 2.84, 9.17, repro,
2012-08-17,2.22, -5.29, -16.97, 2.07, 3.06, 9.57, repro,
2012-08-18,1.74, -2.30, -8.99, 2.22, 3.29, 10.02, repro,
2012-08-19,2.05, -2.52, -9.51, 1.96, 2.86, 9.22, repro,
2012-08-20,5.14, 2.79, -2.07, 1.97, 2.91, 9.16, repro,
2012-08-21,1.47, -0.69, -15.81, 1.96, 2.84, 9.12, repro,
2012-08-22,2.78, 0.17, -16.67, 1.96, 2.84, 9.16, repro,
2012-08-23,2.07, -2.35, -1.25, 2.39, 3.75, 11.29, repro,
2012-08-24,-0.16, 0.70, -10.31, 1.97, 2.93, 9.34, repro,
2012-08-25,2.21, -1.67, -5.83, 1.95, 2.85, 9.11, repro,
2012-08-26,3.19, -3.55, -5.04, 2.24, 3.14, 10.23, repro,
2012-08-27,2.81, -1.99, -16.40, 1.98, 2.93, 9.30, repro,
2012-08-28,3.10, -1.05, -10.99, 2.07, 2.95, 9.62, repro,
2012-08-29,4.13, -5.27, -6.95, 2.05, 2.96, 9.57, repro,
2012-08-30,4.08, 0.79, -19.28, 2.22, 3.05, 10.22, repro,
2012-08-31,1.65, -2.82, -7.59, 2.01, 2.95, 9.38, repro,
2012-09-01,0.37, -5.13, -7.78, 2.12, 3.05, 9.78, repro,
2012-09-02,3.09, 0.40, -9.03, 2.00, 2.93, 9.32, repro,
2012-09-03,2.49, -2.49, -16.93, 2.06, 3.08, 9.65, repro,
2012-09-04,3.32, -0.22, -15.34, 2.10, 2.93, 9.74, repro,
2012-09-05,2.47, -1.99, 2.10, 2.32, 3.59, 11.05, repro,
2012-09-06,1.12, -1.57, -12.91, 1.95, 2.82, 9.15, repro,
2012-09-07,1.97, -3.16, -11.01, 2.23, 3.17, 10.30, repro,
2012-09-08,0.55, -6.29, 5.26, 2.27, 3.49, 10.82, repro,
2012-09-09,3.02, -2.19, -19.85, 2.14, 3.11, 9.81, repro,
2012-09-10,4.23, -0.40, -9.46, 2.42, 3.71, 11.69, repro,
2012-09-11,4.03, -2.11, -20.39, 2.03, 2.90, 9.39, repro,
2012-09-12,1.91, -3.81, -10.63, 2.06, 2.96, 9.63, repro,
2012-09-13,2.09, -6.75, -6.90, 2.23, 3.25, 10.39, repro,
2012-09-14,2.32, -4.14, -12.95, 2.14, 3.22, 9.98, repro,
2012-09-15,2.26, -5.03, -17.95, 1.93, 2.75, 8.98, repro,
2012-09-16,4.26, -3.58, -5.04, 1.93, 2.74, 8.95, repro,
2012-09-17,3.35, -4.16, -10.76, 1.92, 2.70, 9.12, repro,
2012-09-18,4.13, -3.56, -6.12, 2.21, 3.44, 10.31, repro,
2012-09-19,3.73, -0.27, -3.81, 2.03, 2.95, 9.75, repro,
2012-09-20,4.62, -6.74, -18.76, 2.05, 3.06, 9.47, repro,
2012-09-21,5.23, -4.50, -4.32, 2.08, 2.80, 9.90, repro,
2012-09-22,3.06, -4.06, -4.07, 2.08, 2.98, 9.91, repro,
2012-09-23,2.71, -1.13, -3.35, 1.97, 2.92, 9.20, repro,
2012-09-24,8.15, -3.86, 2.97, 2.06, 3.06, 9.70, repro,
2012-09-25,5.02, -3.43, -4.93, 2.02, 3.06, 9.46, repro,
2012-09-26,4.81, -3.62, -6.66, 2.01, 2.75, 9.63, repro,
2012-09-27,2.85, -3.35, -10.22, 2.02, 2.95, 9.37, repro,
2012-09-28,2.48, -4.52, -5.61, 2.00, 2.96, 9.36, repro,
2012-09-29,2.72, -4.60, -14.44, 1.93, 2.79, 8.90, repro,
2012-09-30,3.21, -3.74, -6.75, 1.94, 2.75, 9.08, repro,
2012-10-01,2.25, -5.27, -11.70, 2.43, 3.25, 11.18, repro,
2012-10-02,4.82, 0.33, 1.79, 2.33, 3.32, 10.95, repro,
2012-10-03,5.27, -3.67, 4.53, 1.90, 2.60, 8.99, repro,
2012-10-04,3.46, -1.94, -7.03, 2.07, 2.88, 9.97, repro,
2012-10-05,1.42, -5.54, -14.59, 2.03, 2.81, 9.52, repro,
2012-10-06,2.18, -1.27, -15.01, 2.11, 3.05, 10.31, repro,
2012-10-07,2.56, -1.91, -6.85, 1.97, 2.86, 9.14, repro,
2012-10-08,2.77, -3.51, 4.05, 1.98, 2.90, 9.32, repro,
2012-10-09,2.45, -3.50, -7.15, 2.12, 3.23, 10.12, repro,
2012-10-10,3.05, -0.44, -2.04, 2.26, 3.37, 10.65, repro,
2012-10-11,1.56, -4.84, -5.51, 2.00, 2.90, 9.32, repro,
2012-10-12,0.09, -3.97, 21.81, 2.00, 2.76, 9.44, repro,
2012-10-13,2.16, -5.18, -3.88, 1.99, 2.89, 9.24, repro,
2012-10-14,2.18, -4.43, 2.60, 2.07, 2.94, 9.36, repro,
2012-10-15,4.21, -2.41, -6.57, 2.05, 2.89, 9.56, repro,
2012-10-16,3.58, -2.40, -6.28, 1.92, 2.67, 9.13, repro,
2012-10-17,6.08, -3.08, -6.25, 2.18, 2.96, 10.32, repro,
2012-10-18,3.79, -4.52, -0.47, 2.19, 3.27, 10.07, repro,
2012-10-19,3.81, -5.01, -3.79, 1.98, 2.76, 9.28, repro,
2012-10-20,2.42, -4.31, -2.86, 2.16, 2.92, 10.20, repro,
2012-10-21,2.82, -2.79, -5.50, 2.24, 3.05, 10.53, repro,
2012-10-22,3.73, -2.81, -0.76, 2.02, 2.97, 9.35, repro,
2012-10-23,3.65, -1.88, -7.11, 2.05, 2.85, 9.73, repro,
2012-10-24,1.47, -1.20, 1.05, 2.06, 2.90, 9.41, repro,
2012-10-25,2.28, -5.33, -3.93, 1.93, 2.80, 8.98, repro,
2012-10-26,4.04, -4.29, -16.35, 1.90, 2.68, 9.04, repro,
2012-10-27,3.18, -3.14, -10.07, 1.96, 2.84, 9.15, repro,
2012-10-28,1.35, -3.20, -13.90, 2.21, 3.26, 10.52, repro,
2012-10-29,3.93, -2.33, -5.31, 1.92, 2.66, 9.02, repro,
2012-10-30,4.42, -4.12, -10.94, 2.15, 3.08, 10.15, repro,
2012-10-31,2.06, -4.32, -1.60, 1.97, 2.91, 9.21, repro,
2012-11-01,2.40, -1.48, -17.36, 2.02, 2.94, 9.34, repro,
2012-11-02,1.60, -4.02, -10.63, 2.11, 3.05, 9.83, repro,
2012-11-03,1.34, -3.63, -20.15, 1.91, 2.66, 9.10, repro,
2012-11-04,1.87, -4.10, -21.72, 2.03, 2.90, 9.42, repro,
2012-11-05,-0.25, 3.47, -29.68, 2.44, 3.77, 12.19, repro,
2012-11-06,1.70, -2.79, -8.54, 2.04, 2.88, 9.45, repro,
2012-11-07,-0.39, -3.70, -26.67, 2.28, 3.54, 10.94, repro,
2012-11-08,-0.11, -3.28, -13.06, 2.11, 3.06, 9.97, repro,
2012-11-09,0.74, -7.19, -30.92, 2.17, 3.19, 10.12, repro,
2012-11-10,2.03, -3.11, -21.14, 2.29, 3.15, 11.05, repro,
2012-11-11,2.61, -2.64, -19.64, 2.08, 3.00, 9.68, repro,
2012-11-12,1.04, -0.51, -5.14, 2.15, 2.94, 9.74, repro,
2012-11-13,2.35, -2.85, -22.76, 2.37, 3.35, 10.83, repro,
2012-11-14,1.64, -4.62, -23.37, 2.15, 2.79, 9.88, repro,
2012-11-15,3.02, -4.66, -11.65, 2.31, 3.38, 10.46, repro,
2012-11-16,2.41, -0.16, -18.76, 2.15, 3.23, 9.99, repro,
2012-11-17,1.28, -5.00, -3.82, 2.19, 3.20, 10.25, repro,
2012-11-18,1.10, -4.06, -25.83, 2.19, 3.21, 10.21, repro,
2012-11-19,0.37, -1.48, -22.17, 2.18, 3.15, 10.08, repro,
2012-11-20,0.26, -3.09, -9.56, 2.15, 3.18, 10.12, repro,
2012-11-21,1.25, -0.53, -8.46, 2.00, 2.91, 9.25, repro,
2012-11-22,-0.66, -2.62, -13.03, 2.20, 3.10, 10.09, repro,
2012-11-23,0.98, -3.95, -32.74, 2.10, 2.91, 9.69, repro,
2012-11-24,0.29, -4.16, -15.84, 2.06, 2.91, 9.51, repro,
2012-11-25,1.66, 2.16, -2.25, 2.26, 3.19, 10.37, repro,
2012-11-26,-0.19, -3.32, -9.10, 2.26, 3.17, 10.40, repro,
2012-11-27,-0.28, -3.79, -2.36, 2.13, 3.04, 10.06, repro,
2012-11-28,-0.82, 1.14, -22.30, 2.23, 3.21, 10.89, repro,
2012-11-29,-1.20, -0.78, -26.04, 2.22, 3.13, 10.32, repro,
2012-11-30,0.87, -0.05, -15.76, 2.11, 3.01, 9.95, repro,
2012-12-01,-0.09, -2.65, -25.30, 2.35, 3.44, 10.80, repro,
2012-12-02,-1.14, -2.43, -19.74, 2.11, 3.09, 9.93, repro,
2012-12-03,-1.77, -0.32, -14.86, 2.08, 2.93, 9.73, repro,
2012-12-04,1.43, -2.63, -17.07, 2.05, 2.93, 9.52, repro,
2012-12-05,0.85, -0.76, -12.97, 2.26, 3.34, 10.51, repro,
2012-12-06,-0.08, -2.34, -17.35, 2.20, 3.15, 10.31, repro,
2012-12-07,0.32, -3.19, -17.49, 2.13, 2.99, 9.60, repro,
2012-12-08,3.38, -1.44, -12.17, 2.03, 2.95, 9.47, repro,
2012-12-09,-0.45, -1.93, 1.77, 2.14, 3.00, 10.02, repro,
2012-12-10,-0.69, -2.59, -7.17, 2.03, 2.94, 9.61, repro,
2012-12-11,0.44, -1.04, -13.65, 2.02, 2.90, 9.43, repro,
2012-12-12,-0.60, -1.25, -14.58, 2.28, 3.22, 10.74, repro,
2012-12-13,-1.07, -2.72, -7.27, 2.09, 2.96, 9.81, repro,
2012-12-14,-3.69, -4.53, -23.35, 2.34, 3.40, 11.23, repro,
2012-12-15,1.11, -5.33, -6.12, 2.24, 3.29, 10.36, repro,
2012-12-16,2.85, -1.65, -10.22, 1.95, 2.70, 9.19, repro,
2012-12-17,1.81, -2.41, -12.47, 2.11, 3.00, 9.91, repro,
2012-12-18,0.93, -5.86, -14.68, 2.38, 3.53, 11.41, repro,
2012-12-19,3.31, -2.57, -4.53, 1.97, 2.76, 9.13, repro,
2012-12-20,4.32, -1.24, 2.78, 2.31, 2.96, 10.60, repro,
2012-12-21,-0.10, -2.00, -12.68, 2.14, 2.86, 9.99, repro,
2012-12-22,0.13, -2.76, -16.03, 2.05, 2.79, 9.46, repro,
2012-12-23,0.93, -4.39, -3.75, 2.00, 2.78, 9.25, repro,
2012-12-24,1.40, -2.86, -13.26, 2.19, 2.87, 10.07, repro,
2012-12-25,1.76, -0.76, -9.80, 1.99, 2.80, 9.20, repro,
2012-12-26,-0.41, -5.40, -21.37, 2.01, 2.81, 9.40, repro,
2012-12-27,1.76, -4.29, -4.23, 1.98, 2.76, 9.14, repro,
2012-12-28,-1.53, -4.98, -3.93, 2.10, 2.95, 9.84, repro,
2012-12-29,-0.04, -4.36, -13.07, 2.05, 2.78, 9.41, repro,
2012-12-30,1.71, -3.76, -15.22, 1.98, 2.76, 9.19, repro,
2012-12-31,-0.05, -2.46, -19.14, 2.05, 2.75, 9.38, repro,
2013-01-01,1.45, -3.34, -2.72, 2.15, 3.11, 10.26, repro,
2013-01-02,1.38, -4.78, -11.54, 2.37, 3.10, 10.64, repro,
2013-01-03,0.73, -3.88, -12.90, 2.06, 2.83, 9.39, repro,
2013-01-04,1.26, -5.08, -20.18, 2.03, 2.88, 9.36, repro,
2013-01-05,3.93, -1.58, -6.81, 1.97, 2.87, 9.15, repro,
2013-01-06,0.63, -3.64, -10.97, 1.99, 2.91, 9.36, repro,
2013-01-07,0.48, -0.44, -16.90, 2.29, 3.21, 11.02, repro,
2013-01-08,3.26, -3.64, -10.90, 2.09, 2.90, 9.70, repro,
2013-01-09,2.88, -3.40, -15.63, 2.11, 3.05, 10.04, repro,
2013-01-10,2.08, -3.21, -9.84, 2.04, 2.98, 9.47, repro,
2013-01-11,1.43, -2.39, -4.41, 2.35, 3.15, 10.75, repro,
2013-01-12,3.33, -3.45, -2.85, 2.33, 3.08, 10.44, repro,
2013-01-13,2.34, -3.49, -1.32, 2.03, 2.99, 9.50, repro,
2013-01-14,1.44, -3.60, -7.75, 2.15, 3.03, 10.02, repro,
2013-01-15,1.01, -2.08, -5.02, 2.04, 2.92, 9.40, repro,
2013-01-16,1.84, -2.18, -1.75, 2.18, 3.20, 10.38, repro,
2013-01-17,3.01, -2.77, -0.71, 2.46, 3.60, 11.42, repro,
2013-01-18,2.51, -3.65, -13.24, 2.27, 3.14, 10.28, repro,
2013-01-19,1.74, 0.67, -14.58, 2.00, 2.87, 9.26, repro,
2013-01-20,0.58, -0.33, -5.42, 2.04, 2.91, 9.33, repro,
2013-01-21,1.48, -1.53, -0.34, 2.06, 2.97, 9.49, repro,
2013-01-22,0.93, -1.68, -3.06, 2.38, 3.17, 10.58, repro,
2013-01-23,3.18, -2.00, -6.57, 2.06, 3.04, 9.77, repro,
2013-01-24,1.35, -0.97, -6.56, 2.16, 3.05, 10.09, repro,
2013-01-25,4.07, 1.73, -5.18, 2.46, 3.17, 10.54, repro,
2013-01-26,1.52, -1.12, -4.70, 2.25, 3.01, 10.12, repro,
2013-01-27,0.66, -2.39, 1.97, 2.00, 2.85, 9.18, repro,
2013-01-28,1.72, -0.43, -11.55, 2.04, 2.90, 9.45, repro,
2013-01-29,3.18, -1.06, 1.96, 2.02, 2.92, 9.40, repro,
2013-01-30,3.63, -0.92, -1.90, 2.09, 3.10, 9.57, repro,
2013-01-31,2.26, -0.58, 0.92, 2.05, 3.03, 9.40, repro,
2013-02-01,1.23, 0.94, -9.46, 2.08, 3.10, 9.57, repro,
2013-02-02,2.43, -1.28, -8.68, 2.00, 2.89, 9.21, repro,
2013-02-03,1.09, -0.43, -5.66, 2.00, 2.89, 9.23, repro,
2013-02-04,3.15, -0.81, 3.84, 1.99, 2.89, 9.23, repro,
2013-02-05,3.34, 2.02, -18.19, 2.14, 3.17, 9.92, repro,
2013-02-06,2.11, -0.66, -8.11, 1.80, 2.24, 8.35, repro,
2013-02-07,1.62, -0.89, -7.37, 1.75, 2.22, 8.11, repro,
2013-02-08,1.89, 1.02, -9.48, 1.61, 2.03, 7.40, repro,
2013-02-09,1.74, -0.69, -9.06, 1.56, 1.94, 7.20, repro,
2013-02-10,2.18, -3.21, -5.81, 1.69, 2.05, 7.97, repro,
2013-02-11,5.56, -3.04, 1.06, 1.56, 1.90, 7.15, repro,
2013-02-12,1.99, 0.41, -15.86, 1.62, 1.99, 7.48, repro,
2013-02-13,3.90, -0.92, -15.85, 1.69, 2.03, 7.90, repro,
2013-02-14,1.54, 0.35, 0.52, 1.62, 1.97, 7.59, repro,
2013-02-15,2.99, 0.50, -13.33, 1.54, 1.90, 7.12, repro,
2013-02-16,0.96, 0.15, -18.29, 1.58, 1.94, 7.36, repro,
2013-02-17,0.58, -3.09, -16.00, 1.59, 2.00, 7.55, repro,
2013-02-18,0.95, -2.42, -12.12, 1.62, 1.99, 7.48, repro,
2013-02-19,0.73, -0.82, -9.09, 1.60, 1.98, 7.39, repro,
2013-02-20,1.31, -1.44, -7.05, 1.63, 1.99, 7.41, repro,
2013-02-21,-0.25, -0.34, -7.40, 1.69, 2.07, 7.67, repro,
2013-02-22,2.49, -3.56, -12.96, 1.61, 2.05, 7.43, repro,
2013-02-23,2.03, -2.99, -3.12, 1.61, 2.02, 7.44, repro,
2013-02-24,-0.40, -0.95, 0.23, 1.60, 2.00, 7.44, repro,
2013-02-25,1.40, 0.67, -8.75, 1.59, 1.97, 7.29, repro,
2013-02-26,2.52, -2.97, -12.75, 1.60, 2.00, 7.37, repro,
2013-02-27,2.22, -1.17, -8.60, 1.58, 2.00, 7.21, repro,
2013-02-28,2.90, -2.16, -4.82, 1.61, 2.01, 7.49, repro,
2013-03-01,1.21, 0.75, 1.20, 1.62, 2.04, 7.48, repro,
2013-03-02,1.09, -4.40, -4.33, 1.63, 1.99, 7.52, repro,
2013-03-03,2.71, -3.25, -4.41, 1.57, 1.96, 7.15, repro,
2013-03-04,2.06, -3.32, 0.57, 1.60, 2.00, 7.42, repro,
2013-03-05,1.79, -2.73, -8.48, 1.62, 2.13, 7.42, repro,
2013-03-06,1.06, 0.02, -16.41, 1.73, 2.14, 7.94, repro,
2013-03-07,2.12, -0.26, -5.79, 1.68, 2.14, 7.81, repro,
2013-03-08,1.68, -2.70, -5.60, 1.65, 1.97, 7.43, repro,
2013-03-09,3.29, -0.55, -4.56, 1.56, 1.95, 7.23, repro,
2013-03-10,2.43, -0.99, -5.50, 1.73, 2.03, 7.66, repro,
2013-03-11,2.31, 0.43, -6.09, 1.71, 2.01, 7.90, repro,
2013-03-12,3.80, -1.70, -4.40, 1.65, 2.07, 7.47, repro,
2013-03-13,1.49, -3.20, -11.26, 1.65, 2.01, 7.53, repro,
2013-03-14,1.22, -0.09, -6.35, 1.65, 2.09, 7.59, repro,
2013-03-15,1.53, -1.82, -12.21, 1.62, 1.95, 7.41, repro,
2013-03-16,2.03, -1.62, 9.37, 1.64, 2.09, 7.56, repro,
2013-03-17,1.53, -1.87, -9.10, 1.61, 2.02, 7.42, repro,
2013-03-18,3.11, -0.80, -20.50, 1.62, 2.02, 7.46, repro,
2013-03-19,1.10, 0.07, -10.20, 1.71, 2.15, 8.09, repro,
2013-03-20,-0.27, -2.29, -15.61, 1.73, 2.17, 8.09, repro,
2013-03-21,2.35, -0.14, -12.17, 1.58, 1.92, 7.25, repro,
2013-03-22,0.53, -1.25, -1.81, 1.55, 1.92, 7.08, repro,
2013-03-23,1.76, -2.59, -2.53, 1.58, 2.01, 7.27, repro,
2013-03-24,1.35, -0.19, -1.41, 1.57, 1.97, 7.26, repro,
2013-03-25,3.16, -0.72, -9.95, 1.62, 2.00, 7.47, repro,
2013-03-26,0.74, 1.95, -9.75, 1.61, 1.96, 7.35, repro,
2013-03-27,-1.03, -2.90, -11.43, 1.58, 1.94, 7.20, repro,
2013-03-28,-1.57, 0.73, -11.35, 1.84, 2.34, 8.43, repro,
2013-03-29,2.35, -6.78, -13.62, 1.69, 2.04, 7.75, repro,
2013-03-30,1.95, -0.74, 0.31, 1.58, 1.91, 7.23, repro,
2013-03-31,2.04, 1.33, -3.38, 1.60, 1.93, 7.34, repro,
2013-04-01,1.66, 0.38, -5.97, 1.66, 2.01, 7.64, repro,
2013-04-02,0.27, -2.84, -10.93, 1.69, 2.00, 7.70, repro,
2013-04-03,1.90, -2.03, -6.56, 1.60, 2.02, 7.43, repro,
2013-04-04,1.39, -0.61, -7.69, 1.62, 1.95, 7.39, repro,
2013-04-05,-0.59, 1.77, -11.99, 1.84, 2.34, 8.56, repro,
2013-04-06,1.88, -3.59, -10.33, 1.77, 2.29, 8.15, repro,
2013-04-07,0.13, -1.53, -3.25, 1.65, 2.01, 7.58, repro,
2013-04-08,0.30, -3.70, -15.16, 1.69, 2.04, 7.88, repro,
2013-04-09,1.81, -0.23, -9.55, 1.62, 1.93, 7.38, repro,
2013-04-10,1.98, -1.64, -7.12, 1.65, 2.04, 7.66, repro,
2013-04-11,3.73, 0.85, -12.58, 1.65, 1.96, 7.68, repro,
2013-04-12,0.55, 1.01, -13.06, 1.76, 2.03, 8.21, repro,
2013-04-13,1.90, -0.82, 4.59, 1.58, 1.98, 7.34, repro,
2013-04-14,0.44, -1.29, -10.72, 1.70, 2.10, 7.95, repro,
2013-04-15,0.85, -5.57, -0.77, 1.72, 2.17, 8.05, repro,
2013-04-16,-0.13, -1.53, -6.38, 1.75, 2.15, 8.26, repro,
2013-04-17,2.22, -0.08, 1.59, 1.81, 2.18, 8.51, repro,
2013-04-18,2.72, 0.21, 5.94, 1.71, 2.04, 8.04, repro,
2013-04-19,3.57, 0.80, 1.49, 1.66, 2.02, 7.77, repro,
2013-04-20,0.17, -1.10, -12.93, 1.82, 2.24, 8.49, repro,
2013-04-21,3.15, -3.03, -5.77, 1.65, 2.11, 7.72, repro,
2013-04-22,-1.29, -0.69, -8.80, 1.77, 2.24, 8.29, repro,
2013-04-23,0.69, -0.51, -2.90, 1.83, 2.30, 8.54, repro,
2013-04-24,1.59, -1.19, -9.79, 1.77, 2.08, 8.12, repro,
2013-04-25,1.32, 0.95, -8.18, 1.63, 2.00, 7.60, repro,
2013-04-26,1.33, 1.01, 4.30, 1.73, 2.06, 8.01, repro,
2013-04-27,2.26, 1.06, 2.33, 1.80, 2.30, 8.45, repro,
2013-04-28,1.21, 0.82, -7.98, 1.67, 2.04, 7.91, repro,
2013-04-29,2.83, -1.37, -1.26, 1.61, 2.01, 7.65, repro,
2013-04-30,2.02, -1.80, 2.01, 1.59, 1.99, 7.45, repro,
2013-05-01,1.13, 1.25, -4.00, 1.75, 2.14, 8.15, repro,
2013-05-02,0.21, -1.87, -8.33, 1.70, 2.14, 7.99, repro,
2013-05-03,-2.65, -0.04, 5.39, 1.76, 2.13, 8.22, repro,
2013-05-04,1.45, 1.23, 3.18, 1.59, 1.98, 7.43, repro,
2013-05-05,2.67, -2.25, 3.27, 1.65, 2.03, 7.68, repro,
2013-05-06,0.26, -0.54, -7.24, 1.62, 2.00, 7.57, repro,
2013-05-07,1.86, 1.10, -10.42, 1.66, 2.06, 7.82, repro,
2013-05-08,0.14, -0.01, -4.56, 1.61, 2.00, 7.55, repro,
2013-05-09,-0.36, 0.32, -8.38, 1.59, 1.98, 7.34, repro,
2013-05-10,3.09, 2.40, -9.80, 1.85, 2.28, 8.73, repro,
2013-05-11,1.19, 0.29, 0.28, 1.58, 1.98, 7.28, repro,
2013-05-12,1.33, 1.07, -6.88, 1.58, 1.92, 7.25, repro,
2013-05-13,0.38, -2.19, -5.07, 1.58, 1.94, 7.31, repro,
2013-05-14,1.14, -2.12, -10.33, 1.58, 1.92, 7.29, repro,
2013-05-15,2.81, 2.21, -0.76, 1.67, 2.06, 7.73, repro,
2013-05-16,2.16, -0.42, -4.67, 1.71, 2.31, 8.06, repro,
2013-05-17,1.26, 1.94, -8.88, 1.67, 2.03, 7.73, repro,
2013-05-18,2.25, -1.22, -3.83, 1.59, 1.94, 7.36, repro,
2013-05-19,3.56, -2.43, -2.32, 1.64, 2.04, 7.72, repro,
2013-05-20,0.01, -0.76, 3.26, 1.65, 2.06, 7.54, repro,
2013-05-21,-0.05, 2.17, -3.76, 1.69, 2.09, 7.72, repro,
2013-05-22,0.86, -0.25, -3.74, 1.63, 2.02, 7.34, repro,
2013-05-23,-0.65, -0.31, -5.86, 1.62, 2.00, 7.47, repro,
2013-05-24,-0.50, -0.20, -9.95, 1.62, 2.03, 7.41, repro,
2013-05-25,0.23, 0.56, -3.89, 1.60, 1.99, 7.40, repro,
2013-05-26,2.59, 0.92, -6.27, 1.61, 2.00, 7.48, repro,
2013-05-27,2.73, -4.23, -8.79, 1.89, 2.65, 8.93, repro,
2013-05-28,1.25, 0.28, -1.43, 1.63, 1.98, 7.50, repro,
2013-05-29,1.07, -0.99, -15.69, 2.04, 2.71, 9.59, repro,
2013-05-30,0.50, 0.74, -10.44, 1.59, 1.95, 7.31, repro,
2013-05-31,1.71, 0.32, -10.52, 1.71, 2.15, 7.79, repro,
2013-06-01,-1.44, -0.71, -14.43, 1.62, 1.96, 7.41, repro,
2013-06-02,-0.87, 2.49, -16.61, 1.64, 1.97, 7.45, repro,
2013-06-03,-0.32, 0.95, -5.47, 1.67, 2.05, 7.59, repro,
2013-06-04,-0.66, 0.83, -18.34, 1.66, 2.02, 7.60, repro,
2013-06-05,-3.08, 1.63, -17.26, 1.90, 2.52, 9.03, repro,
2013-06-06,-0.07, -2.27, -7.42, 1.60, 1.97, 7.35, repro,
2013-06-07,1.73, 0.99, -16.99, 1.83, 2.20, 8.39, repro,
2013-06-08,-0.71, 2.70, -13.79, 1.60, 1.92, 7.30, repro,
2013-06-09,0.88, -0.06, -9.73, 1.61, 1.98, 7.43, repro,
2013-06-10,-0.91, 1.16, -10.70, 1.89, 2.43, 8.81, repro,
2013-06-11,-1.76, -1.18, -9.82, 1.64, 2.00, 7.44, repro,
2013-06-12,-0.76, -0.24, -14.98, 1.66, 1.97, 7.49, repro,
2013-06-13,-0.90, 1.46, -14.53, 1.64, 1.94, 7.42, repro,
2013-06-14,-0.56, 0.55, -15.02, 1.63, 1.94, 7.46, repro,
2013-06-15,-0.78, 1.31, -10.03, 1.90, 2.43, 9.00, repro,
2013-06-16,-0.14, -0.41, -19.96, 1.63, 1.95, 7.46, repro,
2013-06-17,-1.12, -3.09, -18.82, 1.62, 1.99, 7.46, repro,
2013-06-18,0.14, 1.30, -13.03, 1.65, 1.95, 7.51, repro,
2013-06-19,-0.63, 0.11, -16.40, 1.64, 1.96, 7.52, repro,
2013-06-20,-0.59, 0.31, -15.37, 1.64, 1.96, 7.52, repro,
2013-06-21,-1.83, -0.27, -8.14, 1.64, 1.96, 7.53, repro,